www.pogodaiklimat.ru

Погода и климат >> Архив погоды >> Хорватия >> Риека аэропорт


ПОГОДА в Риека аэропорту

  • Прогноз погоды в Риека аэропорту
  • Монитор погоды в Риека аэропорту

АРХИВ ПОГОДЫ в Риека аэропорту

Время (UTC), дата Ветер
(напр.,м/с)
 
Видим.   Явления Облачность Т
(С)
Тd
(С)
f
(%)
Тe
(С)
Тes
(С)
Комфортность P
(гПа)
Po
(гПа)
Тmin
(С)
Tmax
(С)
R
(мм)
R24
(мм)
S
(см)
15 14.05 СВ 10-10
{14}
30 км в посл. час дождь 10/10 450 м
[Sc]
+9.2 +0.2 53 +5 +5 1017.1 1006.7
18 14.05 СВ 11-22
{27}
30 км {дождь} 10/10 600 м
[Cu Sc]
+9.3 -1.0 49 +5 +5 1015.4 1005.0 +12.5 0.0
21 14.05 ЮВ 4
{23}
30 км 10/10 600 м
[Cu Sc]
+9.5 -0.8 49 +7 +7 1016.1 1005.8
00 15.05 Ю 3 30 км 10/10 600 м
[Cu Sc]
+9.2 +0.3 54 +7 +7 1014.9 1004.6
03 15.05 СВ 3 30 км 9/8 1000 м
[Sc Ac trans]
+10.1 +0.6 52 +8 +8 1012.8 1002.6
06 15.05 В 7 30 км 9/8 1000 м
[Sc Ci fib]
+9.9 +1.1 54 +7 +7 1013.4 1003.3 +9.1
08 15.05 В 7 30 км 9/8 1000 м
[Sc Ci fib]
+9.9 +1.1 54 +7 +7 1013.4 1003.3 +9.1
09 15.05 В 4 40 км 5/3 1080 м
[Sc Ac trans Ci fib]
+12.8 +1.8 47 +11 +17 1013.5 1003.2
12 15.05 СВ 5 40 км 8/1 1000 м
[Cu hum Ac trans Ci sp]
+14.9 +2.9 44 +14 +19 1013.3 1003.2
15 15.05 В 4 40 км 3/1 1500 м
[Cu hum Ac trans]
+14.0 +3.7 50 +13 +16 1013.6 1003.5
18 15.05 С 4 40 км 10/1 1000 м
[Sc Ac As]
+12.0 +3.2 55 +10 +10 1013.9 1003.6 +15.0
21 15.05 СЗ 2 40 км 10/0
[Ac As]
+10.8 +3.5 61 +10 +10 1014.2 1004.5
00 16.05 З 2 40 км 8/0
[]
+10.7 +0.4 49
03 16.05 ЮВ 1 40 км 6/0
[Ac trans Ci sp]
+10.2 +4.3 67 +10 +10 1012.9 1002.6
06 16.05 ЮЗ 2 40 км 6/0
[Ac trans]
+12.3 +6.1 66 +12 +14 1013.0 1002.7 +9.8
09 16.05 З 3 40 км 3/3
[Cb calv As trans]
+15.0 +4.2 48 +14 +23 1012.7 1002.6
12 16.05 В 3 40 км 3/1
[Cu hum Ac trans Ci fib]
+16.5 +4.0 43 +16 +28 опасность
простуды
1012.0 1001.9
15 16.05 В 3 40 км 3/1 1500 м
[Cu hum Ac trans Ci fib]
+17.1 +4.8 44 +17 +22 1011.2 1001.0
18 16.05 СВ 6 40 км 3/3 1500 м
[Sc diur, vesp]
+13.8 +4.6 54 +12 +12 1011.6 1001.5 +18.3
21 16.05 СВ 5 40 км ясно +12.6 +4.6 58 +11 +11 1012.2 1002.1
00 17.05 н/о
03 17.05 н/о
06 17.05 В 2 40 км ясно +14.2 +5.9 57 +14 +18 1011.2 1001.1 +10.5
09 17.05 ЮВ 2 40 км 1/1 1350 м
[Cu hum]
+17.3 +6.5 49 +18 +31 опасность
простуды
1011.3 1001.2
12 17.05 З 3 40 км 6/3 1300 м
[Cu hum Ci sp]
+18.1 +7.5 50 +18 +28 1011.1 1001.0
15 17.05 З 3 40 км 3/0
[Ci fib]
+18.2 +7.2 49 +18 +24 1010.5 1000.4
18 17.05 СЗ 1 40 км 3/0
[Ci fib]
+17.5 +7.6 52 +19 +19 1009.5 999.4 +18.7
21 17.05 В 2 40 км 4/0
[Ci fib]
+13.0 +8.0 72 +12 +12 1010.0 1000.0
00 18.05 штиль 0 40 км 4/0
[Ci fib]
+11.9 +8.0 77 +11 +11 1009.1 999.0
03 18.05 В 1 40 км 5/0
[Ci sp]
+11.8 +8.2 79 +12 +12 1008.1 998.0
06 18.05 В 2 30 км 9/6 1500 м
[Sc Ac As]
+15.2 +8.9 66 +15 +16 1008.4 998.3 +11.5
09 18.05 В 3 20 км 8/4 1200 м
[Sc Ac und]
+18.7 +8.1 50 +19 +23 1007.3 997.4
12 18.05 З 1 12 км слаб. дождь 9/9 800 м
[Sc Ac As]
+15.4 +12.5 83 +16 +18 1008.2 998.2
15 18.05 З 3 20 км {дождь} 10/8 900 м
[Sc Ac As]
+15.4 +13.9 91 +15 +15 1007.7 997.6
18 18.05 СЗ 3 15 км в посл. час дождь 9/6 1110 м
[Sc Ac As]
+14.1 +13.6 97 +13 +13 1008.1 998.0 +19.2 8
21 18.05 В 2 25 км {дождь} 6/0
[Ac trans]
+13.2 +12.5 96 +12 +12 1008.1 998.0
00 19.05 С 2 25 км {дождь} 6/0
[Ac trans]
+12.9 +12.4 97 +12 +12 1007.3 997.2 0.2
03 19.05 З 3 25 км 9/4 1110 м
[Sc Ac As]
+12.9 +12.4 97 +11 +11 1006.2 996.1
06 19.05 ЮЗ 2 10 км 9/9 100 м
[Cu Sc]
+13.3 +12.8 97 +12 +13 1005.9 995.9 +12.6 0.2
09 19.05 З 4 20 км 8/5 300 м
[Cu Sc Ac trans Cs]
+17.1 +12.6 75 +17 +20 1005.3 995.3
12 19.05 СЗ 2 15 км 10/6 1000 м
[Cu Sc Ac As]
+17.9 +12.7 72 +18 +21 1004.8 994.9 0.1
15 19.05 З 2 20 км {гроза, дождь} 10/6 600 м
[Cu Sc Ac As]
+17.3 +11.5 69 +18 +19 1004.6 994.6
18 19.05 В 2 15 км слаб. дождь {гроза} 10/8 400 м
[Sc Ac As]
+14.8 +14.1 96 +14 +14 1004.9 994.9 +18.5 0.2
21 19.05 Ю 2 15 км {дождь} 9/6 480 м
[Sc Ac As Cs]
+13.7 +13.5 99 +13 +13 1005.0 994.7
00 20.05 В 4 15 км {дождь} 9/6 480 м
[Sc Ac As Cs]
+13.3 +13.0 98 +11 +11 1004.9 994.6 1
03 20.05 ЮВ 4 12 км слаб. дождь 10/9 300 м
[Cu Sc Ac As]
+12.7 +12.5 99 +11 +11 1004.5 994.2
06 20.05 ЮВ 3 7000 м в посл. час дождь туман 10/8 210 м
[Cu Sc Ac As]
+12.5 +12.2 98 +11 +11 1005.4 995.4 +12.3 23
09 20.05 ЮЗ 3 10 км слаб. дождь 10/9 90 м
[Cu Sc Ac As]
+13.4 +12.4 94 +12 +12 1006.9 996.8
12 20.05 ЮВ 3 10 км слаб. дождь 9/6 360 м
[Cu Sc Ac As]
+14.0 +11.4 84 +13 +16 1008.4 998.3 6
15 20.05 Ю 4 15 км {дождь} 6/4 800 м
[Cu Sc Ac trans Ci fib]
+16.8 +11.2 70 +16 +19 1008.1 998.0
18 20.05 Ю 3 20 км {дождь} 8/8 800 м
[Cu Sc]
+15.0 +11.6 80 +14 +14 1008.3 998.2 +17.2 6
21 20.05 СВ 1 20 км слаб. дождь 10/8 600 м
[Sc As op]
+14.4 +12.8 90 +15 +15 1009.3 999.0
00 21.05 ЮВ 4 20 км слаб. дождь 10/9 600 м
[Sc As op]
+13.7 +12.7 94 +12 +12 1009.3 999.0 2
03 21.05 ЮВ 3 20 км слаб. дождь 10/9 600 м
[Sc As op]
+13.5 +12.7 95 +12 +12 1008.5 998.3
06 21.05 Ю 4 10 км слаб. дождь 10/6 500 м
[Sc As op]
+13.9 +12.7 92 +12 +13 1009.3 999.2 +13.3 6
09 21.05 ЮВ 3 8000 м слаб. дождь 10/8 210 м
[Frnb As op]
+14.8 +13.3 91 +14 +14 1010.7 1000.6
12 21.05 ЮВ 4 8000 м слаб. дождь 10/8 300 м
[Frnb As op]
+13.8 +13.1 96 +12 +13 1012.0 1001.9 1

 

Местоположение метеостанции Риека аэропорт (Хорватия): широта 45.22 долгота 14.58 высота над уровнем моря 85 м.

В архиве по умолчанию представлена погода в Риека аэропорту за последнюю неделю. Архивные данные за месяц целиком и за предыдущие месяцы, начиная с января 2011 года, Вы можете получить, выбрав интересующий диапазон дат из раскрывающегося списка и нажав кнопку "Ввод!".


*Определитесь, кто Вы:
робот инопланетянин человек

Внимание! Время в таблицах - всемирное. Для получения местного времени необходимо прибавить поправку, которая равна 1 ч.

Смотрите также архив погоды в соседних городах и на ближайших метеорологических станциях:

Погода в Риеке (Хорватия) (16 км)
Погода в Сене (Хорватия) (35 км)
Погода в Парке (Хорватия) (42 км)
Погода в Пазине (Хорватия) (51 км)
Погода в Огулине (Хорватия) (51 км)
Погода в Кочевье (Словения) (52 км)
Погода в Рабе (Хорватия) (54 км)
Погода в Завизани (Хорватия) (54 км)
Погода в Чрномеле (Словения) (59 км)
Погода в Пуле (Хорватия) (63 км)

Пояснения к столбцам:

Ветер - указаны скорость ветра в м/с - средняя за 10 мин, порывы в срок и между сроками (в фигурных скобках) и направление, откуда дует ветер: С - северный, СВ - северо-восточный, В - восточный, ЮВ - юго-восточный, Ю - южный, ЮЗ - юго-западный, З - западный, СЗ - северо-западный.
Видимость - горизонтальная дальность видимости в метрах или километрах. При видимости от 1 до 10 км при отсутствии осадков обычно наблюдается дымка, при ухудшении видимости до 1 км и менее - туман. В сухую погоду видимость может ухудшаться дымом, пылью или мглою.
Явления - указаны атмосферные явления, наблюдавшиеся в срок или в последний час перед сроком; фигурными скобками обозначены явления, наблюдавшиеся между сроками (за 1-3 часа до срока); квадратными скобками обозначены град или гололедные отложения с указанием их диаметра в мм.
Облачность - указаны через наклонную черту общая и нижняя облачность в баллах и высота нижней границы облаков в метрах; квадратными скобками обозначены формы облаков: Ci - перистые, Cs - перисто-слоистые, Cc - перисто-кучевые, Ac - высококучевые, As - высокослоистые, Sc - слоисто-кучевые, Ns - слоисто-дождевые, Cu - кучевые, Cb - кучево-дождевые. Подробнее классификацию облаков см. в Атласе облаков (PDF).
T - Температура воздуха - температура, измеренная на высоте 2 м над землей.
Td - Температура точки росы - температура, при понижении до которой содержащийся в воздухе водяной пар достигнет насыщения.
f - Относительная влажность воздуха - влажноcть воздуха, измеренная на высоте 2 м над землей.
Te - Эффективная температура - температура, которую ощущает одетый по сезону человек в тени. Характеристика душности погоды. При расчете учитывается влияние влажности воздуха и скорости ветра на теплоощущения человека.
Tes - Эффективная температура на солнце - температура, которую ощущает человек, с поправкой на солнечный нагрев. Характеристика знойности погоды. Зависит от высоты солнца над горизонтом, облачности и скорости ветра. Ночью, в пасмурную погоду, а также при ветре 12 м/с и более поправка равна нулю.
P - Атмосферное давление - приведенное к уровню моря атмосферное давление.
Po - Атмосферное давление - измеренное на уровне метеостанции атмосферное давление.
Tmin - Минимальная температура - минимум температуры воздуха на высоте 2 м над землей.
Tmax - Максимальная температура - максимум температуры воздуха на высоте 2 м над землей.
R - Количество осадков - Количество выпавших осадков за период времени, мм. При наведении курсора мыши на число - период времени, за который выпало указанное количество осадков.
R24 - Количество осадков - Количество выпавших осадков за 24 часа, мм.
S - Снежный покров - Высота снежного покрова, см. При наведении курсора мыши на число - состояние снежного покрова и степень покрытия местности в баллах.